This demonstration page uses our WeatherBlox Daily Observations layout. Learn more.

39.92423, -83.80882

Hourly Observations for June 19, 2016

Temp ( °F °C ) Dew Point ( °F °C ) Humidity (%) Winds ( mph kmh ) Pressure ( in mb ) Visibility ( mi km ) Precip ( " mm )
12:56 am 00:56 Clear 69 20.5 60 15.5 73 73 SE 5 7 30.27 1025 10 16.0934 0 0
1:56 am 01:56 Clear 67 19.4 60 15.5 78 78 Calm 30.27 1025 10 16.0934 0 0
2:56 am 02:56 Clear 65 18.3 60 15.5 84 84 SE 3 6 30.27 1025 10 16.0934 0 0
3:56 am 03:56 Clear 63 17.2 60 15.5 90 90 E 3 6 30.27 1025 10 16.0934 0 0
4:56 am 04:56 Clear 62 16.6 60 15.5 93 93 ESE 5 7 30.28 1025 10 16.0934 0 0
5:56 am 05:56 Clear 62 16.6 59 15 90 90 Calm 30.29 1026 10 16.0934 0 0
6:56 am 06:56 Sunny 68 20 59 15 73 73 S 6 9 30.3 1026 10 16.0934 0 0
7:56 am 07:56 Sunny 70 21.1 57 13.8 63 63 S 7 11 30.31 1027 10 16.0934 0 0
8:56 am 08:56 Sunny 74 23.3 56 13.3 54 54 S 7 11 30.33 1027 10 16.0934 0 0
9:56 am 09:56 Sunny 77 25 57 13.8 50 50 S 7 11 30.33 1027 10 16.0934 0 0
10:56 am 10:56 Sunny 80 26.6 59 15 49 49 S 8 13 30.32 1027 10 16.0934 0 0
11:56 am 11:56 Sunny 83 28.3 61 16.1 48 48 SSW 8 13 30.31 1026 10 16.0934 0 0
12:56 pm 12:56 Sunny 85 29.4 62 16.6 46 46 VRB 7 11 30.3 1026 10 16.0934 0 0
1:56 pm 13:56 Sunny 87 30.5 61 16.1 42 42 S 8 13 30.28 1025 10 16.0934 0 0
2:56 pm 14:56 Mostly Sunny 88 31.1 62 16.6 42 42 VRB 5 7 30.27 1025 10 16.0934 0 0
3:56 pm 15:56 Partly Cloudy 87 30.5 64 17.7 46 46 SSW 8 13 30.25 1025 10 16.0934 0 0
4:56 pm 16:56 Partly Cloudy 89 31.6 64 17.7 43 43 S 7 11 30.23 1024 10 16.0934 0 0
5:56 pm 17:56 Mostly Sunny 88 31.1 65 18.3 46 46 S 8 13 30.22 1023 10 16.0934 0 0
6:56 pm 18:56 Mostly Sunny 86 30 66 18.8 51 51 SSW 6 9 30.21 1023 10 16.0934 0 0
7:56 pm 19:56 Partly Cloudy 86 30 67 19.4 53 53 S 6 9 30.22 1023 10 16.0934 0 0
8:56 pm 20:56 Sunny 82 27.7 68 20 63 63 S 6 9 30.22 1024 10 16.0934 0 0
9:56 pm 21:56 Clear 80 26.6 67 19.4 65 65 SSE 6 9 30.23 1024 10 16.0934 0 0
10:56 pm 22:56 Clear 77 25 67 19.4 71 71 SSE 7 11 30.24 1024 10 16.0934 0 0
11:56 pm 23:56 Clear 76 24.4 68 20 77 77 S 8 13 30.21 1023 10 16.0934 0 0

Powered by AerisWeather